GW2755 Weather Reports


time (UTC)temp
C
wind
direction
speed
KPH
gust
KPH
rain 1hr
cm
rain 24hr
cm
rain mn
cm
humidity
%
barometer
mb
20260506084541 10 0.0 0.0 0.00 0.00 0.00 92 1021.0
20260506083541 10 0.0 0.0 0.00 0.00 0.00 93 1020.9
20260506082541 10 0.0 0.0 0.00 0.00 0.00 93 1021.0
20260506081542 10 0.0 0.0 0.00 0.00 0.00 93 1020.9
20260506080541 10 0.0 0.0 0.00 0.00 0.00 93 1021.0
20260506072540 10 0.0 0.0 0.00 0.00 0.00 91 1020.7
20260506071541 10 0.0 0.0 0.00 0.00 0.00 91 1020.6
20260506070601 11 0.0 0.0 0.00 0.00 0.00 91 1020.5
20260506061541 12 268 0.0 3.2 0.00 0.00 0.00 88 1020.3
20260506060541 12 315 0.0 4.8 0.00 0.00 0.00 87 1018.6
20260506050601 12 104 1.6 4.8 0.00 0.00 0.00 87 1019.7
20260506044543 13 113 1.6 4.8 0.00 0.00 0.00 86 1019.5
20260506043602 13 133 1.6 9.7 0.00 0.00 0.00 85 1019.4
20260506042541 13 54 1.6 9.7 0.00 0.00 0.00 85 1019.3
20260506041541 13 43 0.0 4.8 0.00 0.00 0.00 84 1019.1
20260506040542 13 31 1.6 4.8 0.00 0.00 0.00 83 1019.0
20260506035541 13 30 1.6 4.8 0.00 0.00 0.00 83 1018.9
20260506034542 13 306 1.6 4.8 0.00 0.00 0.00 82 1018.8
20260506033541 13 16 3.2 4.8 0.00 0.00 0.00 81 1018.6
20260506032541 14 81 3.2 11.3 0.00 0.00 0.00 80 1018.3
20260506031543 14 83 3.2 11.3 0.00 0.00 0.00 80 1018.3
20260506030540 14 49 3.2 11.3 0.00 0.00 0.00 79 1018.3
20260506025602 15 80 4.8 11.3 0.00 0.00 0.00 79 1018.1
20260506024541 15 56 4.8 14.5 0.00 0.00 0.00 78 1018.1
20260506023603 15 74 1.6 6.4 0.00 0.00 0.00 77 1016.6
20260506022541 15 97 1.6 9.7 0.00 0.00 0.00 75 1016.4
20260506021541 16 28 3.2 9.7 0.00 0.00 0.00 74 1016.4
20260506020540 16 18 4.8 9.7 0.00 0.00 0.00 72 1017.7
20260506015541 16 232 3.2 9.7 0.00 0.00 0.00 70 1017.8
20260506014541 17 108 4.8 9.7 0.00 0.00 0.00 69 1017.8
20260506013541 17 47 3.2 12.9 0.00 0.00 0.00 68 1017.6
20260506012541 17 76 3.2 11.3 0.00 0.00 0.00 67 1017.6
20260506011541 18 33 4.8 11.3 0.00 0.00 0.00 66 1017.6
20260506010543 18 80 4.8 12.9 0.00 0.00 0.00 65 1017.5
20260506005601 18 88 6.4 11.3 0.00 0.00 0.00 64 1017.6
20260506004543 19 21 4.8 12.9 0.00 0.00 0.00 63 1017.6
20260506003541 20 64 4.8 14.5 0.00 0.00 0.00 62 1017.4
20260506002541 19 50 4.8 11.3 0.00 0.00 0.00 62 1017.4
20260506001540 19 185 3.2 9.7 0.00 0.00 0.00 62 1017.3
20260506000541 19 93 4.8 12.9 0.00 0.00 0.00 60 1017.3
20260505235601 19 67 4.8 11.3 0.00 0.00 0.00 61 1017.4
20260505234541 19 38 4.8 14.5 0.00 0.00 0.00 61 1017.2
20260505233541 18 124 1.6 11.3 0.00 0.00 0.00 62 1017.3
20260505232541 18 165 1.6 9.7 0.00 0.00 0.00 63 1017.2
20260505231541 18 26 3.2 12.9 0.00 0.00 0.00 63 1015.5
20260505230601 18 170 4.8 12.9 0.00 0.00 0.00 62 1016.9
20260505225541 18 196 1.6 12.9 0.00 0.00 0.00 62 1017.4
20260505224541 19 47 3.2 11.3 0.00 0.00 0.00 60 1017.3
20260505223601 20 152 1.6 9.7 0.00 0.00 0.00 58 1017.5
20260505222541 20 145 1.6 6.4 0.00 0.00 0.00 57 1017.6
20260505221541 19 89 3.2 12.9 0.00 0.00 0.00 58 1017.5
20260505220541 18 80 3.2 9.7 0.00 0.00 0.00 58 1017.7
20260505215541 19 91 3.2 11.3 0.00 0.00 0.00 56 1017.7
20260505214541 20 60 3.2 9.7 0.00 0.00 0.00 56 1017.7
20260505213621 18 103 4.8 12.9 0.00 0.00 0.00 59 1017.8
20260505212542 18 42 4.8 12.9 0.00 0.00 0.00 58 1017.8
20260505211601 19 102 3.2 11.3 0.00 0.00 0.00 57 1017.8
20260505210541 19 117 6.4 16.1 0.00 0.00 0.00 56 1017.8
20260505205541 19 87 6.4 12.9 0.00 0.00 0.00 55 1018.0
20260505204541 20 215 4.8 12.9 0.00 0.00 0.00 54 1017.9
20260505203541 20 342 3.2 11.3 0.00 0.00 0.00 53 1017.8
20260505202541 19 65 4.8 11.3 0.00 0.00 0.00 55 1018.0
20260505201540 19 72 4.8 14.5 0.00 0.00 0.00 55 1018.0
20260505200541 19 90 4.8 12.9 0.00 0.00 0.00 57 1016.9
20260505195542 19 60 4.8 11.3 0.00 0.00 0.00 57 1018.2
20260505194542 19 84 4.8 16.1 0.00 0.00 0.00 59 1018.3
20260505193541 18 194 4.8 11.3 0.00 0.00 0.00 63 1018.4
20260505192542 17 72 3.2 4.8 0.00 0.00 0.00 62 1018.5
20260505191602 17 101 4.8 11.3 0.00 0.00 0.00 65 1018.5
20260505190541 16 62 4.8 12.9 0.00 0.00 0.00 68 1018.5
20260505185542 16 104 3.2 6.4 0.00 0.00 0.00 69 1018.6
20260505184541 16 161 3.2 9.7 0.00 0.00 0.00 68 1018.5
20260505183541 16 195 4.8 12.9 0.00 0.00 0.00 68 1018.5
20260505182602 16 103 4.8 11.3 0.00 0.00 0.00 67 1018.5
20260505181541 16 40 4.8 12.9 0.00 0.00 0.00 66 1018.3
20260505180601 17 69 6.4 14.5 0.00 0.00 0.00 63 1018.1
20260505175602 17 138 3.2 12.9 0.00 0.00 0.00 64 1018.0
20260505174703 17 156 1.6 4.8 0.00 0.00 0.00 62 1017.9
20260505173542 17 7 3.2 6.4 0.00 0.00 0.00 63 1017.8
20260505172541 16 26 1.6 9.7 0.00 0.00 0.00 65 1017.9
20260505171542 17 94 3.2 9.7 0.00 0.00 0.00 64 1017.9
20260505170541 16 72 3.2 11.3 0.00 0.00 0.00 65 1018.0
20260505165541 16 131 3.2 9.7 0.00 0.00 0.00 65 1017.8
20260505164541 16 290 1.6 4.8 0.00 0.00 0.00 66 1016.6
20260505163541 16 192 1.6 4.8 0.00 0.00 0.00 69 1016.2
20260505162541 16 350 0.0 3.2 0.00 0.00 0.00 74 1016.3
20260505161546 15 170 0.0 3.2 0.00 0.00 0.00 77 1017.5
20260505160541 14 226 0.0 3.2 0.00 0.00 0.00 80 1017.9
20260505152601 12 277 0.0 3.2 0.00 0.00 0.00 84 1017.8
20260505151542 12 249 0.0 3.2 0.00 0.00 0.00 85 1017.7
20260505150621 12 229 0.0 3.2 0.00 0.00 0.00 86 1017.7
20260505140542 10 291 1.6 3.2 0.00 0.00 0.00 90 1017.2
20260505124541 11 252 0.0 1.6 0.00 0.00 0.00 88 1016.2
20260505123601 11 168 1.6 3.2 0.00 0.00 0.00 88 1015.3
20260505122541 11 35 0.0 4.8 0.00 0.00 0.00 88 1015.3
20260505121541 11 68 0.0 3.2 0.00 0.00 0.00 87 1015.2
20260505120541 11 142 1.6 4.8 0.00 0.00 0.00 87 1016.9
20260505115542 12 89 1.6 4.8 0.00 0.00 0.00 87 1016.7
20260505114541 12 152 1.6 4.8 0.00 0.00 0.00 86 1016.7
20260505113543 12 182 1.6 4.8 0.00 0.00 0.00 86 1016.7
20260505112602 12 80 3.2 4.8 0.00 0.00 0.00 86 1016.7
20260505111541 12 189 1.6 9.7 0.00 0.00 0.00 86 1016.6
20260505110601 12 94 3.2 6.4 0.00 0.00 0.00 86 1016.8
20260505101541 12 79 1.6 4.8 0.00 0.00 0.00 86 1016.9
20260505100541 12 93 1.6 6.4 0.00 0.00 0.00 86 1017.0
20260505095541 12 218 1.6 4.8 0.00 0.00 0.00 86 1017.0
20260505094541 12 173 1.6 3.2 0.00 0.00 0.00 86 1017.0
20260505093541 12 84 3.2 6.4 0.00 0.00 0.00 86 1016.9
20260505092541 12 147 0.0 3.2 0.00 0.00 0.00 86 1016.9
20260505091540 12 118 1.6 3.2 0.00 0.00 0.00 86 1017.0
20260505090621 12 132 1.6 9.7 0.00 0.00 0.00 86 1016.9
20260505085602 12 118 1.6 6.4 0.00 0.00 0.00 86 1017.0